Location: Warszawa
(52.2500°N, 21.0000°E)
Time: 23:49:49
(UTC+02:00)

AO-27 - Pass Details

Date: 19 April 2024
Orbit: 783 x 797 km, 98.8° (Epoch: 26 May)

Event Time Altitude Azimuth Distance (km) Brightness Sun altitude
Rises 22:36:51 0° 222° (SW) 3,291 10.7 -21.3°
Reaches altitude 10° 22:40:42 10° 251° (WSW) 2,370 10.3 -21.6°
Maximum altitude 22:42:52 13° 276° (W) 2,201 10.4 -21.8°
Drops below altitude 10° 22:45:03 10° 301° (WNW) 2,378 11.0 -21.9°
Sets 22:48:57 0° 330° (NNW) 3,315 12.4 -22.2°
